#timestamp,LO_Frequency,Hit,StdDev 
1596560415.2,286047000.4,N
1596560435.0,286047000.3,N
1596560435.9,286047000.3,N
1596560455.8,286047002.5,N
1596560475.6,286047002.7,N
1596560495.5,286047000.3,N
1596560515.3,286047001.1,N
1596560535.1,286047001.1,N
1596560555.9,286047000.5,N
1596560575.7,286047001.2,N
1596560595.5,286046999.9,N
1596560615.4,286046998.1,N
1596560635.2,286047000.9,N
1596560655.1,286046998.2,N
1596560656.0,286046998.2,N
1596560675.8,286047001.1,N
1596560695.6,286047000.2,N
1596560715.5,286047000.3,N
1596560735.3,286047002.4,N
1596560755.1,286046999.7,N
1596560775.9,286047000.8,N
1596560795.7,286046998.1,N
1596560815.6,286046998.1,N
1596560835.4,286046998.7,N
1596560855.2,286047001.2,N
1596560875.1,286047000.9,N
1596560876.0,286047000.9,N
1596560895.8,286046999.9,N
1596560915.7,286046998.5,N
1596560935.5,286046998.8,N
1596560955.3,286047001.0,N
1596560975.2,286046998.2,N
1596560995.0,286046998.4,N
1596560995.9,286046998.4,N
1596561015.8,286046997.0,N
1596561035.6,286046997.6,N
1596561055.4,286046996.5,N
1596561075.3,286046998.4,N
1596561095.1,286046998.7,N
1596561115.8,286046997.1,N
1596561135.7,286046996.9,N
1596561155.5,286046997.7,N
1596561175.4,286046997.3,N
1596561195.2,286046996.8,N
1596561215.0,286046997.2,N
1596561215.9,286046997.2,N
1596561235.8,286046997.2,N
1596561255.6,286046994.9,Y
1596561275.5,286046997.9,P
1596561295.3,286046997.6,P
1596561315.1,286046996.8,P
1596561335.9,286046998.9,N
1596561355.7,286046999.0,N
1596561375.6,286047004.5,Y
1596561395.4,286047008.1,P
1596561415.2,286047009.1,N
1596561435.1,286047007.3,N
1596561436.0,286047007.3,N
1596561455.8,286047007.9,N
1596561475.6,286047010.5,N
1596561495.5,286047010.6,N
1596561515.3,286047008.3,N
1596561535.2,286047006.4,N
1596561555.9,286047004.7,N
1596561575.7,286047005.3,N
1596561595.6,286047002.9,N
1596561615.4,286047005.0,N
1596561635.2,286047003.7,N
1596561655.1,286047004.0,N
1596561656.0,286047004.0,N
1596561675.8,286047001.7,N
1596561695.7,286047002.0,N
1596561715.5,286047000.0,N
1596561735.3,286047000.1,N
1596561755.2,286047002.4,N
1596561775.0,286047000.5,N
1596561775.9,286047000.5,N
1596561795.8,286046998.3,N
1596561815.6,286047001.1,N
1596561835.4,286047001.1,N
1596561855.3,286047000.6,N
1596561875.1,286047001.0,N
1596561895.8,286046998.4,N
1596561915.7,286046998.9,N
1596561935.5,286047000.4,N
1596561955.4,286047000.0,N
1596561975.2,286047001.0,N
1596561995.1,286047001.1,N
1596561996.0,286047001.1,N
1596562015.8,286046999.9,N
1596562035.6,286047001.2,N
1596562055.5,286047000.2,N
1596562075.3,286047000.6,N
1596562095.1,286046998.2,N
1596562115.9,286046998.6,N
1596562135.7,286046998.8,N
1596562155.6,286046998.7,N
1596562175.4,286046998.7,N
1596562195.2,286047000.8,N
1596562215.1,286046998.5,N
1596562216.0,286046998.5,N
1596562235.8,286046998.9,N
1596562255.7,286046998.6,N
1596562275.0,286047001.0,N
1596562275.9,286047001.0,N
1596562295.7,286046999.4,N
1596562315.6,286046998.2,N
1596562335.4,286046998.5,N
1596562355.3,286046998.5,N
1596562375.1,286046998.2,N
1596562376.0,286046998.2,N
1596562395.8,286046999.4,N
1596562415.7,286046997.7,N
1596562435.5,286046994.9,Y
1596562455.4,286046998.6,P
1596562475.2,286046998.6,P
1596562495.0,286046996.6,P
1596562495.9,286046996.6,Y
1596562515.8,286046998.5,P
1596562535.6,286046998.2,P
1596562555.5,286047000.4,N
1596562575.3,286047000.2,N
1596562595.1,286046998.1,N
1596562615.9,286046998.2,N
1596562635.7,286046998.8,N
1596562655.5,286047000.8,N
1596562675.4,286047001.0,N
1596562695.2,286047000.4,N
1596562715.1,286046999.9,N
1596562716.0,286046999.9,N
1596562735.8,286046998.2,N
1596562755.6,286046998.8,N
1596562775.5,286047000.0,N
1596562795.3,286046998.8,N
1596562815.2,286046998.7,N
1596562835.9,286046999.0,N
1596562855.7,286047000.7,N
1596562875.6,286046998.8,N
1596562895.4,286046998.7,N
1596562915.2,286046998.4,N
1596562935.1,286046998.5,N
1596562936.0,286046998.5,N
1596562955.8,286046998.4,N
1596562975.7,286047000.9,N
1596562995.5,286047001.0,N
1596563015.3,286046998.1,N
1596563035.2,286046999.0,N
1596563055.0,286046998.5,N
1596563055.9,286046998.5,N
1596563075.8,286047001.1,N
1596563095.6,286047000.7,N
1596563115.4,286046998.6,N
1596563135.3,286046998.2,N
1596563155.1,286047001.2,N
1596563175.9,286047000.7,N
1596563195.7,286047000.9,N
1596563215.5,286046998.5,N
1596563235.4,286046998.6,N
1596563255.2,286047001.2,N
1596563275.1,286046999.7,N
1596563276.0,286046999.7,N
1596563295.8,286047000.3,N
1596563315.6,286047002.4,N
1596563335.5,286047002.3,N
1596563355.3,286047002.1,N
1596563375.1,286047001.8,N
1596563395.9,286047002.5,N
1596563415.7,286047002.7,N
1596563435.6,286047002.8,N
1596563455.4,286046999.7,N
1596563475.2,286047002.5,N
1596563495.1,286047002.7,N
1596563496.0,286047002.7,N
1596563515.8,286047002.4,N
1596563535.7,286047002.1,N
1596563555.5,286047001.6,N
1596563575.3,286047001.5,N
1596563595.2,286047004.2,N
1596563615.0,286047001.7,N
1596563615.9,286047001.7,N
1596563635.8,286047003.1,N
1596563655.6,286047003.1,N
1596563675.4,286047003.8,N
1596563695.3,286047004.0,N
1596563715.1,286047001.4,N
1596563735.8,286047001.6,N
1596563755.7,286047001.7,N
1596563775.5,286047001.7,N
1596563795.4,286047001.3,N
1596563815.2,286047003.2,N
1596563835.0,286047003.6,Y
1596563835.9,286047003.6,P
1596563855.8,286046999.9,N
1596563875.6,286047000.5,N
1596563895.4,286047000.4,N
1596563915.3,286047000.9,N
1596563935.1,286047001.1,N
1596563955.9,286047000.5,N
1596563975.7,286047000.9,N
1596563995.5,286047001.1,N
